Tracking 20093 objects as of 16-Dec-2019
HD Live streaming from Space Station
objects crossing your sky now

SL-8 DEB

Track SL-8 DEB now!
10-day predictions


NORAD ID: 21187
Int'l Code: 1991-009BA
Perigee: 1,504.2 km
Apogee: 1,789.5 km
Inclination: 74.2 °
Period: 119.1 minutes
Semi major axis: 8017 km
RCS: 0.05 m2 (small)
Launch date: February 12, 1991
Source: Commonwealth of Independent States (former USSR) (CIS)
Launch site: PLESETSK MISSILE AND SPACE COMPLEX (PKMTR)

Note: This is SATELLITE DEBRIS
aabbcc
Your satellite tracking list
Your tracking list is empty




NASA's NSSDC Master Catalog

Two Line Element Set (TLE):
1 21187U 91009BA  19348.81661574 -.00000152 +00000-0 -14661-2 0  9991
2 21187 074.2450 002.6243 0177895 167.3195 006.9802 12.09247007270027
Source of the keplerian elements: AFSPC